contact:dominique.lefevre@mio.osupytheas.fr, maurice.libes@osupytheas.fr, didier.mallarino@osupytheas.fr
Project:EMSO http://www.emso-fr.org/EMSO-France
Depth: 2436.0 m
Title:EMSO Ligure Ouest : Data MII capteur AQUADOPP
Date,Latitude,Longitude,X_East,Y_North,Z_Up,Amplitude_X,Amplitude_Y,Amplitude_Z,Batterie,SoundSpeed,Heading,Pitch,Roll,Pressure,TIS,Speed,Direction
, degrees North, degrees East, m.s-1, m.s-1,m.s-1, 1, 1, 1, Volt, m.s-1, degree, degree, degree, dbar, degree_C, m.s-1, degree
2022-01-21T00:04:03,42.805,6.029,-0.035,-0.022,-0.017,102.0,102.0,101.0,13.3,1505.2,325.5,-0.8,1.8,2470.444,13.28,0.041,237.8
2022-01-21T00:07:03,42.805,6.029,-0.015,0.002,0.025,103.0,103.0,101.0,13.4,1505.2,328.7,-0.8,1.8,2470.387,13.29,0.015,277.6
2022-01-21T00:10:03,42.805,6.029,-0.016,0.015,0.014,103.0,104.0,99.0,13.4,1505.2,323.8,-0.8,1.8,2470.453,13.29,0.021,313.1
2022-01-21T00:13:03,42.805,6.029,-0.018,-0.002,-0.018,103.0,103.0,102.0,13.3,1505.2,327.8,-0.8,1.8,2470.582,13.29,0.018,263.7
2022-01-21T00:16:03,42.805,6.029,-0.025,-0.002,-0.01,103.0,101.0,102.0,13.3,1505.2,331.6,-0.8,1.8,2470.941,13.29,0.025,265.4
2022-01-21T00:19:03,42.805,6.029,-0.015,-0.01,0.007,103.0,102.0,101.0,13.4,1505.2,324.3,-0.7,1.8,2470.315,13.29,0.018,236.3
2022-01-21T00:22:03,42.805,6.029,-0.043,-0.006,-0.004,103.0,103.0,100.0,13.3,1505.2,325.4,-0.7,1.8,2470.333,13.29,0.043,262.1
2022-01-21T00:25:03,42.805,6.029,-0.03,0.022,0.035,103.0,102.0,102.0,13.4,1505.2,330.4,-0.8,1.8,2470.319,13.29,0.037,306.3
2022-01-21T00:28:03,42.805,6.029,-0.033,-0.005,-0.029,103.0,101.0,101.0,13.4,1505.2,327.0,-0.7,1.8,2470.326,13.29,0.033,261.4
2022-01-21T00:31:03,42.805,6.029,-0.044,0.002,-0.011,104.0,103.0,101.0,13.3,1505.2,329.5,-0.7,1.9,2470.308,13.29,0.044,272.6
2022-01-21T00:34:03,42.805,6.029,-0.041,0.007,-0.005,103.0,103.0,102.0,13.4,1505.2,328.6,-0.8,1.8,2470.326,13.29,0.041,279.7
2022-01-21T00:37:03,42.805,6.029,-0.018,-0.013,-0.024,103.0,102.0,101.0,13.3,1505.2,329.2,-0.7,1.8,2470.348,13.29,0.022,234.2
2022-01-21T00:40:03,42.805,6.029,-0.033,0.004,-0.027,103.0,102.0,101.0,13.4,1505.2,330.0,-0.8,1.8,2470.331,13.29,0.033,276.9
2022-01-21T00:43:03,42.805,6.029,-0.024,-0.008,0.006,105.0,104.0,100.0,13.4,1505.2,329.8,-0.8,1.8,2470.352,13.29,0.025,251.6
2022-01-21T00:46:03,42.805,6.029,-0.008,-0.035,-0.031,102.0,102.0,102.0,13.4,1505.2,326.9,-0.8,1.8,2470.335,13.29,0.035,192.9
2022-01-21T00:49:03,42.805,6.029,-0.02,0.011,0.011,104.0,102.0,101.0,13.3,1505.2,327.9,-0.8,1.8,2470.323,13.29,0.022,298.8
2022-01-21T00:52:03,42.805,6.029,-0.03,-0.004,-0.01,105.0,101.0,100.0,13.3,1505.2,328.9,-0.8,1.8,2470.323,13.29,0.03,262.4
2022-01-21T00:55:03,42.805,6.029,-0.029,0.009,-0.012,102.0,103.0,101.0,13.3,1505.2,330.2,-0.8,1.8,2470.32,13.29,0.03,287.2
2022-01-21T00:58:03,42.805,6.029,-0.011,0.016,0.018,102.0,102.0,101.0,13.3,1505.2,325.6,-0.7,1.8,2470.329,13.29,0.019,325.5
2022-01-21T01:04:03,42.805,6.029,-0.015,-0.023,0.03,105.0,106.0,103.0,13.4,1505.2,327.8,-0.8,1.8,2470.355,13.28,0.027,213.1
2022-01-21T01:07:03,42.805,6.029,-0.028,0.007,-0.025,103.0,103.0,101.0,13.4,1505.2,329.2,-0.7,1.8,2470.353,13.28,0.028,284.0
2022-01-21T01:10:03,42.805,6.029,-0.018,-0.016,-0.021,102.0,102.0,101.0,13.3,1505.2,326.3,-0.8,1.8,2470.304,13.29,0.024,228.4
2022-01-21T01:13:03,42.805,6.029,-0.046,0.004,0.017,103.0,102.0,102.0,13.4,1505.2,331.0,-0.7,1.8,2470.351,13.29,0.046,275.0
2022-01-21T01:16:03,42.805,6.029,-0.042,-0.007,-0.043,101.0,102.0,101.0,13.3,1505.2,330.6,-0.7,1.8,2470.361,13.29,0.042,260.5
2022-01-21T01:19:03,42.805,6.029,-0.018,-0.018,-0.003,103.0,101.0,102.0,13.4,1505.2,327.2,-0.7,1.8,2470.297,13.29,0.025,225.0
2022-01-21T01:22:03,42.805,6.029,-0.033,-0.001,-0.017,103.0,102.0,101.0,13.4,1505.2,328.8,-0.8,1.8,2470.335,13.29,0.033,268.3
2022-01-21T01:25:03,42.805,6.029,-0.021,0.003,-0.005,102.0,102.0,102.0,13.4,1505.2,329.2,-0.8,1.8,2470.333,13.29,0.021,278.1
2022-01-21T01:28:03,42.805,6.029,-0.039,-0.01,-0.032,103.0,102.0,100.0,13.4,1505.2,328.9,-0.7,1.8,2470.351,13.29,0.04,255.6
2022-01-21T01:31:03,42.805,6.029,-0.046,0.01,-0.014,103.0,103.0,102.0,13.4,1505.2,327.2,-0.7,1.8,2470.326,13.29,0.047,282.3
2022-01-21T01:34:03,42.805,6.029,-0.035,0.01,-0.011,102.0,101.0,102.0,13.4,1505.2,326.7,-0.8,1.8,2470.333,13.29,0.036,285.9
2022-01-21T01:37:03,42.805,6.029,-0.032,-0.006,-0.008,103.0,103.0,101.0,13.3,1505.2,330.1,-0.7,1.8,2470.357,13.29,0.032,259.4
2022-01-21T01:40:03,42.805,6.029,-0.034,0.001,0.013,104.0,102.0,101.0,13.4,1505.2,328.7,-0.7,1.8,2470.359,13.29,0.034,271.7
2022-01-21T01:43:03,42.805,6.029,-0.038,0.0,0.023,102.0,102.0,102.0,13.4,1505.2,325.8,-0.8,1.8,2470.365,13.29,0.038,270.0
2022-01-21T01:46:03,42.805,6.029,-0.026,0.018,0.021,103.0,102.0,102.0,13.4,1505.2,326.3,-0.8,1.8,2470.351,13.29,0.031,304.7
2022-01-21T01:49:03,42.805,6.029,-0.027,0.002,-0.002,104.0,103.0,101.0,13.4,1505.2,326.1,-0.8,1.8,2470.385,13.29,0.027,274.2
2022-01-21T01:52:03,42.805,6.029,-0.033,0.01,-0.003,106.0,102.0,101.0,13.4,1505.2,329.9,-0.8,1.8,2470.377,13.29,0.034,286.9
2022-01-21T01:55:03,42.805,6.029,-0.028,0.009,-0.017,104.0,102.0,104.0,13.4,1505.2,327.2,-0.7,1.8,2470.359,13.29,0.029,287.8
2022-01-21T01:58:03,42.805,6.029,-0.028,-0.003,-0.017,103.0,104.0,101.0,13.4,1505.2,327.6,-0.8,1.8,2470.38,13.29,0.028,263.9
2022-01-21T02:04:03,42.805,6.029,-0.021,-0.01,0.0,102.0,102.0,101.0,13.3,1505.2,324.1,-0.7,1.8,2470.357,13.28,0.023,244.5
2022-01-21T02:07:03,42.805,6.029,-0.057,0.014,-0.005,103.0,102.0,100.0,13.4,1505.2,325.7,-0.7,1.8,2470.418,13.28,0.058,283.8
2022-01-21T02:10:03,42.805,6.029,-0.037,0.021,0.015,104.0,101.0,101.0,13.4,1505.2,325.6,-0.8,1.8,2470.365,13.28,0.042,299.6
2022-01-21T02:13:03,42.805,6.029,-0.028,0.014,0.015,103.0,103.0,103.0,13.4,1505.2,325.6,-0.8,1.8,2470.385,13.29,0.031,296.6
2022-01-21T02:16:03,42.805,6.029,-0.026,0.004,-0.027,104.0,102.0,101.0,13.4,1505.2,328.4,-0.8,1.8,2470.344,13.29,0.026,278.7
2022-01-21T02:19:03,42.805,6.029,-0.036,0.009,-0.029,103.0,103.0,101.0,13.3,1505.2,328.0,-0.7,1.8,2470.355,13.29,0.037,284.0
2022-01-21T02:22:03,42.805,6.029,-0.049,0.027,0.023,103.0,102.0,102.0,13.4,1505.2,327.3,-0.7,1.8,2470.948,13.29,0.055,298.9
2022-01-21T02:25:03,42.805,6.029,-0.024,-0.004,0.005,103.0,102.0,102.0,13.4,1505.2,326.2,-0.8,1.8,2470.489,13.29,0.024,260.5
2022-01-21T02:28:03,42.805,6.029,-0.017,0.01,0.018,104.0,103.0,102.0,13.4,1505.2,326.3,-0.8,1.8,2470.409,13.29,0.019,300.5
2022-01-21T02:31:03,42.805,6.029,-0.032,0.005,0.003,103.0,101.0,103.0,13.4,1505.2,326.6,-0.8,1.8,2471.017,13.29,0.032,278.9
2022-01-21T02:34:03,42.805,6.029,-0.022,0.002,-0.023,104.0,102.0,102.0,13.4,1505.2,328.7,-0.8,1.8,2471.173,13.29,0.022,275.2
2022-01-21T02:37:03,42.805,6.029,-0.048,0.019,0.012,102.0,104.0,102.0,13.3,1505.2,331.3,-0.8,1.8,2471.339,13.29,0.051,291.6
2022-01-21T02:40:03,42.805,6.029,-0.055,0.012,-0.014,101.0,101.0,102.0,13.4,1505.2,328.2,-0.8,1.8,2471.587,13.29,0.056,282.3
2022-01-21T02:43:03,42.805,6.029,-0.038,0.012,0.006,103.0,101.0,102.0,13.4,1505.2,328.9,-0.8,1.8,2471.247,13.29,0.039,287.5
2022-01-21T02:46:03,42.805,6.029,-0.02,0.022,0.012,104.0,101.0,103.0,13.4,1505.2,328.5,-0.8,1.8,2471.223,13.29,0.029,317.7
2022-01-21T02:49:03,42.805,6.029,-0.014,-0.018,-0.005,103.0,103.0,102.0,13.3,1505.2,326.8,-0.7,1.8,2471.125,13.29,0.022,217.9
2022-01-21T02:52:03,42.805,6.029,-0.023,0.005,-0.034,104.0,104.0,102.0,13.3,1505.2,327.6,-0.8,1.8,2471.186,13.29,0.023,282.3
2022-01-21T02:55:03,42.805,6.029,-0.048,0.015,-0.029,103.0,101.0,102.0,13.4,1505.2,329.1,-0.8,1.9,2471.1,13.29,0.05,287.4
2022-01-21T02:58:03,42.805,6.029,-0.06,0.012,-0.014,102.0,101.0,102.0,13.4,1505.2,327.2,-0.7,1.8,2471.07,13.29,0.061,281.3
2022-01-21T03:04:03,42.805,6.029,-0.045,0.001,-0.023,103.0,102.0,101.0,13.4,1505.2,326.4,-0.8,1.8,2471.046,13.28,0.045,271.3
2022-01-21T03:07:03,42.805,6.029,-0.029,0.0,-0.039,102.0,104.0,103.0,13.4,1505.2,327.7,-0.7,1.8,2471.044,13.28,0.028,270.0
2022-01-21T03:10:03,42.805,6.029,-0.055,-0.01,-0.033,105.0,103.0,102.0,13.4,1505.2,327.3,-0.8,1.8,2471.065,13.28,0.055,259.7
2022-01-21T03:13:03,42.805,6.029,-0.026,-0.008,0.004,103.0,103.0,103.0,13.3,1505.2,325.8,-0.8,1.7,2470.766,13.28,0.027,252.9
2022-01-21T03:16:03,42.805,6.029,-0.013,-0.01,-0.058,104.0,102.0,101.0,13.4,1505.2,328.4,-0.7,1.8,2470.725,13.29,0.016,232.4
2022-01-21T03:19:03,42.805,6.029,-0.049,0.0,-0.031,102.0,104.0,100.0,13.4,1505.2,327.8,-0.8,1.8,2470.448,13.29,0.049,270.0
2022-01-21T03:22:03,42.805,6.029,-0.031,0.018,0.017,103.0,104.0,102.0,13.4,1505.2,329.0,-0.7,1.8,2470.335,13.29,0.035,300.1
2022-01-21T03:25:03,42.805,6.029,-0.051,0.0,-0.001,102.0,103.0,102.0,13.3,1505.2,323.8,-0.8,1.8,2470.223,13.29,0.051,270.0
2022-01-21T03:28:03,42.805,6.029,-0.039,-0.006,-0.02,105.0,100.0,100.0,13.4,1505.2,330.2,-0.8,1.8,2470.143,13.29,0.039,261.3
2022-01-21T03:31:03,42.805,6.029,-0.019,0.021,-0.015,102.0,103.0,101.0,13.4,1505.2,330.0,-0.7,1.8,2470.196,13.29,0.028,317.9
2022-01-21T03:34:03,42.805,6.029,-0.033,-0.002,-0.008,103.0,105.0,101.0,13.3,1505.2,328.5,-0.7,1.8,2470.188,13.29,0.033,266.5
2022-01-21T03:37:03,42.805,6.029,-0.042,0.004,0.019,102.0,101.0,103.0,13.3,1505.2,325.7,-0.7,1.8,2470.244,13.29,0.042,275.4
2022-01-21T03:40:03,42.805,6.029,-0.031,0.011,-0.006,103.0,102.0,101.0,13.4,1505.2,327.4,-0.7,1.8,2470.246,13.29,0.032,289.5
2022-01-21T03:43:03,42.805,6.029,-0.031,0.015,-0.032,104.0,102.0,102.0,13.4,1505.2,327.9,-0.8,1.8,2470.181,13.29,0.034,295.8
2022-01-21T03:46:03,42.805,6.029,-0.031,0.008,-0.011,103.0,102.0,102.0,13.4,1505.2,324.0,-0.8,1.8,2470.27,13.29,0.032,284.5
2022-01-21T03:49:03,42.805,6.029,-0.043,0.005,-0.006,103.0,104.0,101.0,13.4,1505.2,329.6,-0.7,1.8,2470.255,13.29,0.043,276.6
2022-01-21T03:52:03,42.805,6.029,-0.027,0.0,-0.028,103.0,103.0,101.0,13.4,1505.2,330.9,-0.8,1.8,2470.31,13.29,0.026,270.0
2022-01-21T03:55:03,42.805,6.029,-0.01,0.008,-0.026,102.0,103.0,101.0,13.4,1505.2,324.0,-0.8,1.8,2470.273,13.29,0.012,308.7
2022-01-21T03:58:03,42.805,6.029,-0.013,0.018,0.014,103.0,103.0,101.0,13.3,1505.2,328.8,-0.8,1.8,2470.331,13.29,0.022,324.2
2022-01-21T04:04:03,42.805,6.029,-0.035,0.0,0.008,105.0,103.0,102.0,13.4,1505.2,323.8,-0.8,1.8,2470.328,13.28,0.035,270.0
2022-01-21T04:07:03,42.805,6.029,-0.03,0.0,-0.013,102.0,104.0,102.0,13.4,1505.2,326.9,-0.7,1.8,2470.377,13.28,0.03,270.0
2022-01-21T04:10:03,42.805,6.029,-0.054,0.021,0.0,103.0,103.0,102.0,13.4,1505.2,326.8,-0.7,1.9,2470.357,13.28,0.057,291.2
2022-01-21T04:13:03,42.805,6.029,-0.031,-0.01,0.011,103.0,104.0,101.0,13.4,1505.2,330.2,-0.7,1.8,2470.315,13.28,0.032,252.1
2022-01-21T04:16:03,42.805,6.029,-0.035,0.009,0.011,102.0,103.0,101.0,13.4,1505.2,327.9,-0.8,1.8,2470.317,13.29,0.036,284.4
2022-01-21T04:19:03,42.805,6.029,-0.047,0.022,-0.014,103.0,103.0,102.0,13.3,1505.2,327.6,-0.8,1.8,2470.339,13.29,0.051,295.1
2022-01-21T04:22:03,42.805,6.029,-0.017,0.0,-0.009,102.0,103.0,102.0,13.4,1505.2,327.3,-0.7,1.8,2470.315,13.29,0.017,270.0
2022-01-21T04:25:03,42.805,6.029,-0.014,-0.001,-0.036,104.0,103.0,102.0,13.3,1505.2,327.9,-0.7,1.8,2470.364,13.29,0.014,265.9
2022-01-21T04:28:03,42.805,6.029,-0.038,-0.005,0.002,102.0,102.0,102.0,13.3,1505.2,327.6,-0.8,1.8,2470.305,13.29,0.038,262.5
2022-01-21T04:31:03,42.805,6.029,-0.038,0.014,-0.002,103.0,102.0,101.0,13.4,1505.2,327.7,-0.7,1.9,2470.287,13.29,0.04,290.2
2022-01-21T04:34:03,42.805,6.029,-0.061,0.012,-0.05,103.0,102.0,102.0,13.4,1505.2,328.0,-0.8,1.8,2470.361,13.29,0.062,281.1
2022-01-21T04:37:03,42.805,6.029,-0.056,0.003,0.01,103.0,103.0,101.0,13.4,1505.2,328.0,-0.8,1.8,2470.354,13.29,0.056,273.1
2022-01-21T04:40:03,42.805,6.029,-0.023,0.007,-0.03,106.0,105.0,100.0,13.4,1505.2,325.5,-0.8,1.8,2470.388,13.29,0.024,286.9
2022-01-21T04:43:03,42.805,6.029,-0.02,0.015,-0.005,102.0,103.0,100.0,13.4,1505.2,326.3,-0.8,1.8,2470.359,13.29,0.025,306.9
2022-01-21T04:46:03,42.805,6.029,-0.048,0.017,-0.005,103.0,102.0,101.0,13.4,1505.2,327.7,-0.7,1.8,2470.351,13.29,0.05,289.5
2022-01-21T04:49:03,42.805,6.029,-0.05,0.01,-0.006,103.0,103.0,100.0,13.4,1505.2,330.7,-0.8,1.8,2470.396,13.29,0.05,281.3
2022-01-21T04:52:03,42.805,6.029,-0.054,0.015,0.0,103.0,102.0,102.0,13.3,1505.2,331.4,-0.8,1.9,2470.401,13.29,0.056,285.5
2022-01-21T04:55:03,42.805,6.029,-0.056,0.003,-0.009,103.0,102.0,101.0,13.4,1505.2,325.6,-0.7,1.9,2470.44,13.29,0.056,273.1
2022-01-21T04:58:03,42.805,6.029,-0.035,0.02,-0.009,105.0,103.0,100.0,13.3,1505.2,325.1,-0.7,1.8,2470.444,13.29,0.04,299.7
2022-01-21T05:04:03,42.805,6.029,-0.059,0.01,0.013,102.0,103.0,102.0,13.3,1505.2,323.9,-0.8,1.8,2470.485,13.28,0.059,279.6
2022-01-21T05:07:03,42.805,6.029,-0.018,0.021,0.004,103.0,103.0,102.0,13.3,1505.2,330.3,-0.8,1.8,2470.511,13.28,0.027,319.4
2022-01-21T05:10:03,42.805,6.029,-0.055,0.006,-0.008,104.0,102.0,101.0,13.4,1505.2,328.4,-0.7,1.8,2470.485,13.28,0.055,276.2
2022-01-21T05:13:03,42.805,6.029,-0.039,0.008,-0.008,104.0,104.0,101.0,13.4,1505.2,326.5,-0.8,1.8,2470.508,13.28,0.039,281.6
2022-01-21T05:16:03,42.805,6.029,-0.053,0.003,0.01,103.0,103.0,101.0,13.3,1505.2,325.2,-0.7,1.8,2470.527,13.29,0.053,273.2
2022-01-21T05:19:03,42.805,6.029,-0.036,0.009,-0.021,103.0,103.0,103.0,13.3,1505.2,329.2,-0.8,1.8,2470.523,13.29,0.037,284.0
2022-01-21T05:22:03,42.805,6.029,-0.051,0.0,-0.009,102.0,103.0,102.0,13.3,1505.2,326.8,-0.7,1.8,2470.547,13.29,0.051,270.0
2022-01-21T05:25:03,42.805,6.029,-0.027,0.012,0.036,102.0,103.0,101.0,13.4,1505.2,331.9,-0.8,1.8,2470.545,13.29,0.029,294.0
2022-01-21T05:28:03,42.805,6.029,-0.037,-0.001,-0.006,103.0,103.0,101.0,13.4,1505.2,326.7,-0.8,1.8,2470.523,13.29,0.037,268.5
2022-01-21T05:31:03,42.805,6.029,-0.033,0.003,0.001,103.0,103.0,102.0,13.3,1505.2,324.5,-0.8,1.8,2470.578,13.29,0.033,275.2
2022-01-21T05:34:03,42.805,6.029,-0.047,-0.005,-0.007,103.0,102.0,102.0,13.4,1505.2,330.9,-0.8,1.8,2470.523,13.29,0.047,263.9
2022-01-21T05:37:03,42.805,6.029,-0.026,0.042,0.001,103.0,102.0,102.0,13.3,1505.2,328.7,-0.8,1.8,2470.523,13.29,0.049,328.2
2022-01-21T05:40:03,42.805,6.029,-0.042,0.027,0.023,102.0,104.0,101.0,13.4,1505.2,325.3,-0.8,1.8,2470.631,13.29,0.049,302.7
2022-01-21T05:43:03,42.805,6.029,-0.03,0.013,-0.006,103.0,103.0,102.0,13.3,1505.2,326.1,-0.8,1.9,2470.575,13.29,0.032,293.4
2022-01-21T05:46:03,42.805,6.029,-0.029,0.016,0.016,104.0,102.0,101.0,13.4,1505.2,330.8,-0.8,1.8,2470.575,13.29,0.033,298.9
2022-01-21T05:49:03,42.805,6.029,-0.031,0.006,0.0,105.0,104.0,102.0,13.4,1505.2,330.2,-0.8,1.8,2470.58,13.29,0.031,281.0
2022-01-21T05:52:03,42.805,6.029,-0.058,0.008,0.0,103.0,103.0,103.0,13.4,1505.2,324.8,-0.8,1.8,2470.595,13.29,0.058,277.8
2022-01-21T05:55:03,42.805,6.029,-0.034,0.005,0.008,102.0,105.0,102.0,13.3,1505.2,324.2,-0.8,1.8,2470.595,13.29,0.034,278.4
2022-01-21T05:58:03,42.805,6.029,-0.03,0.011,-0.023,103.0,103.0,101.0,13.4,1505.2,331.5,-0.7,1.8,2470.64,13.29,0.031,290.1
2022-01-21T06:04:03,42.805,6.029,-0.026,0.013,-0.002,104.0,103.0,102.0,13.3,1505.2,327.7,-0.8,1.8,2470.667,13.28,0.029,296.6
2022-01-21T06:07:03,42.805,6.029,-0.038,0.032,0.036,103.0,103.0,102.0,13.4,1505.2,329.4,-0.8,1.8,2470.613,13.29,0.049,310.1
2022-01-21T06:10:03,42.805,6.029,-0.029,0.018,-0.003,104.0,104.0,101.0,13.3,1505.2,329.9,-0.8,1.8,2470.639,13.29,0.034,301.8
2022-01-21T06:13:03,42.805,6.029,-0.029,0.005,-0.001,103.0,103.0,102.0,13.3,1505.2,330.7,-0.7,1.8,2470.623,13.29,0.029,279.8
2022-01-21T06:16:03,42.805,6.029,-0.032,0.0,-0.012,105.0,103.0,102.0,13.4,1505.2,330.0,-0.8,1.8,2470.625,13.29,0.032,270.0
2022-01-21T06:19:03,42.805,6.029,-0.025,0.008,0.024,103.0,103.0,102.0,13.4,1505.2,327.3,-0.7,1.8,2470.646,13.29,0.026,287.7
2022-01-21T06:22:03,42.805,6.029,-0.046,-0.001,-0.019,103.0,103.0,102.0,13.4,1505.2,328.3,-0.7,1.8,2470.635,13.29,0.046,268.8
2022-01-21T06:25:03,42.805,6.029,-0.015,-0.001,0.02,104.0,102.0,102.0,13.4,1505.2,324.8,-0.7,1.8,2470.645,13.29,0.015,266.2
2022-01-21T06:28:03,42.805,6.029,-0.038,0.022,0.013,105.0,101.0,101.0,13.3,1505.2,324.4,-0.8,1.8,2470.622,13.29,0.043,300.1
2022-01-21T06:31:03,42.805,6.029,-0.034,0.011,0.016,102.0,103.0,103.0,13.4,1505.2,327.4,-0.8,1.8,2470.641,13.29,0.035,287.9
2022-01-21T06:34:03,42.805,6.029,-0.006,-0.003,-0.022,102.0,103.0,101.0,13.3,1505.2,328.9,-0.7,1.8,2470.624,13.29,0.006,243.4
2022-01-21T06:37:03,42.805,6.029,-0.012,0.0,-0.014,103.0,103.0,102.0,13.4,1505.2,325.3,-0.7,1.8,2470.656,13.29,0.012,270.0
2022-01-21T06:40:03,42.805,6.029,-0.035,0.005,0.001,102.0,103.0,102.0,13.4,1505.2,326.1,-0.7,1.8,2470.661,13.29,0.035,278.1
2022-01-21T06:43:03,42.805,6.029,-0.043,-0.002,0.002,103.0,103.0,102.0,13.3,1505.2,327.3,-0.8,1.8,2470.646,13.29,0.043,267.3
2022-01-21T06:46:03,42.805,6.029,-0.043,-0.007,0.002,105.0,103.0,101.0,13.3,1505.2,331.0,-0.8,1.9,2470.644,13.29,0.043,260.8
2022-01-21T06:49:03,42.805,6.029,-0.044,0.002,0.0,103.0,102.0,102.0,13.3,1505.2,326.0,-0.8,1.8,2470.656,13.29,0.044,272.6
2022-01-21T06:52:03,42.805,6.029,-0.023,0.019,0.029,104.0,103.0,102.0,13.3,1505.2,328.0,-0.8,1.8,2470.651,13.29,0.029,309.6
2022-01-21T06:55:03,42.805,6.029,-0.06,0.005,-0.005,104.0,103.0,101.0,13.4,1505.2,324.4,-0.8,1.8,2470.662,13.29,0.06,274.8
2022-01-21T06:58:03,42.805,6.029,-0.03,0.017,-0.007,103.0,103.0,103.0,13.4,1505.2,324.4,-0.8,1.8,2470.669,13.29,0.034,299.5
2022-01-21T07:04:03,42.805,6.029,-0.029,0.008,0.009,102.0,103.0,102.0,13.4,1505.2,329.9,-0.7,1.8,2470.712,13.28,0.03,285.4
2022-01-21T07:07:03,42.805,6.029,-0.012,-0.013,0.015,103.0,103.0,102.0,13.4,1505.2,325.0,-0.7,1.8,2470.674,13.29,0.017,222.7
2022-01-21T07:10:03,42.805,6.029,-0.032,0.013,0.016,104.0,103.0,100.0,13.4,1505.2,326.2,-0.8,1.8,2470.738,13.29,0.034,292.1
2022-01-21T07:13:03,42.805,6.029,-0.033,0.0,0.011,102.0,103.0,101.0,13.4,1505.2,331.6,-0.8,1.8,2470.699,13.29,0.033,270.0
2022-01-21T07:16:03,42.805,6.029,-0.023,0.015,0.012,103.0,104.0,101.0,13.4,1505.2,329.5,-0.7,1.9,2470.704,13.29,0.027,303.1
2022-01-21T07:19:03,42.805,6.029,-0.015,0.008,0.002,104.0,102.0,102.0,13.4,1505.2,329.7,-0.7,1.8,2470.703,13.29,0.017,298.1
2022-01-21T07:22:03,42.805,6.029,-0.036,0.005,0.0,105.0,101.0,102.0,13.4,1505.2,327.7,-0.7,1.8,2470.663,13.29,0.036,277.9
2022-01-21T07:25:03,42.805,6.029,-0.046,-0.008,-0.034,105.0,102.0,102.0,13.4,1505.2,323.7,-0.7,1.8,2470.669,13.29,0.046,260.1
2022-01-21T07:28:03,42.805,6.029,-0.022,-0.001,-0.014,102.0,104.0,103.0,13.3,1505.2,324.0,-0.7,1.8,2470.71,13.29,0.022,267.4
2022-01-21T07:31:03,42.805,6.029,-0.023,-0.004,0.022,103.0,103.0,103.0,13.3,1505.2,329.2,-0.7,1.8,2470.7,13.29,0.023,260.1
2022-01-21T07:34:03,42.805,6.029,-0.027,0.011,-0.006,104.0,103.0,101.0,13.4,1505.2,329.7,-0.8,1.9,2470.667,13.29,0.029,292.2
2022-01-21T07:37:03,42.805,6.029,-0.031,0.003,-0.022,103.0,103.0,102.0,13.4,1505.2,325.9,-0.8,1.8,2470.698,13.29,0.031,275.5
2022-01-21T07:40:03,42.805,6.029,-0.016,0.008,0.0,103.0,103.0,102.0,13.3,1505.2,331.3,-0.8,1.8,2470.656,13.29,0.017,296.6
2022-01-21T07:43:03,42.805,6.029,-0.037,-0.005,-0.005,102.0,102.0,102.0,13.3,1505.2,326.3,-0.8,1.9,2470.69,13.29,0.037,262.3
2022-01-21T07:46:03,42.805,6.029,-0.03,0.018,0.009,103.0,102.0,101.0,13.3,1505.2,327.6,-0.8,1.8,2470.675,13.29,0.034,301.0
2022-01-21T07:49:03,42.805,6.029,-0.032,0.003,0.004,102.0,102.0,102.0,13.3,1505.2,329.7,-0.7,1.8,2470.711,13.29,0.032,275.4
2022-01-21T07:52:03,42.805,6.029,-0.017,0.01,-0.043,104.0,102.0,101.0,13.4,1505.2,329.6,-0.7,1.8,2470.671,13.29,0.019,300.5
2022-01-21T07:55:03,42.805,6.029,-0.037,0.02,-0.012,102.0,102.0,101.0,13.4,1505.2,331.3,-0.7,1.8,2470.696,13.29,0.042,298.4
2022-01-21T07:58:03,42.805,6.029,-0.029,-0.012,-0.036,103.0,104.0,101.0,13.4,1505.2,328.7,-0.8,1.8,2470.695,13.29,0.031,247.5
2022-01-21T08:04:03,42.805,6.029,-0.043,-0.002,-0.004,103.0,103.0,102.0,13.3,1505.2,325.7,-0.8,1.8,2470.761,13.29,0.043,267.3
2022-01-21T08:07:03,42.805,6.029,-0.012,0.003,0.009,103.0,103.0,102.0,13.3,1505.2,326.9,-0.8,1.8,2470.638,13.29,0.012,284.0
2022-01-21T08:10:03,42.805,6.029,-0.011,-0.007,-0.015,103.0,102.0,102.0,13.4,1505.2,325.5,-0.8,1.8,2470.707,13.29,0.013,237.5
2022-01-21T08:13:03,42.805,6.029,0.0,-0.009,-0.014,103.0,101.0,106.0,13.3,1505.2,326.2,-0.8,1.8,2470.693,13.29,0.009,180.0
2022-01-21T08:16:03,42.805,6.029,-0.03,-0.008,-0.026,104.0,103.0,103.0,13.4,1505.2,331.3,-0.8,1.8,2470.69,13.29,0.031,255.1
2022-01-21T08:19:03,42.805,6.029,-0.043,0.005,-0.018,103.0,102.0,101.0,13.3,1505.2,330.2,-0.7,1.8,2470.697,13.29,0.043,276.6
2022-01-21T08:22:03,42.805,6.029,-0.01,0.013,0.002,102.0,103.0,101.0,13.4,1505.2,328.8,-0.8,1.8,2470.674,13.29,0.016,322.4
2022-01-21T08:25:03,42.805,6.029,-0.052,-0.004,-0.002,102.0,103.0,101.0,13.4,1505.2,326.3,-0.7,1.8,2470.652,13.29,0.052,265.6
2022-01-21T08:28:03,42.805,6.029,-0.038,0.002,-0.015,104.0,103.0,100.0,13.4,1505.2,330.2,-0.8,1.8,2470.704,13.29,0.038,273.0
2022-01-21T08:31:03,42.805,6.029,-0.041,-0.002,0.005,104.0,102.0,102.0,13.4,1505.2,325.1,-0.8,1.8,2470.812,13.29,0.041,267.2
2022-01-21T08:34:03,42.805,6.029,-0.013,0.011,-0.012,101.0,103.0,101.0,13.3,1505.2,324.8,-0.7,1.8,2470.606,13.29,0.017,310.2
2022-01-21T08:37:03,42.805,6.029,-0.039,0.004,-0.008,103.0,103.0,101.0,13.3,1505.2,326.9,-0.8,1.8,2471.095,13.29,0.039,275.9
2022-01-21T08:40:03,42.805,6.029,-0.035,-0.014,0.008,102.0,103.0,101.0,13.4,1505.2,329.2,-0.8,1.8,2471.086,13.29,0.037,248.2
2022-01-21T08:43:03,42.805,6.029,-0.002,-0.016,-0.02,103.0,103.0,102.0,13.3,1505.2,324.0,-0.8,1.8,2471.18,13.29,0.016,187.1
2022-01-21T08:46:03,42.805,6.029,-0.031,0.002,-0.003,102.0,103.0,101.0,13.4,1505.2,324.5,-0.7,1.8,2471.292,13.29,0.031,273.7
2022-01-21T08:49:03,42.805,6.029,-0.036,0.022,0.002,102.0,102.0,103.0,13.4,1505.2,323.8,-0.7,1.8,2471.546,13.29,0.042,301.4
2022-01-21T08:52:03,42.805,6.029,-0.048,0.005,-0.002,103.0,103.0,102.0,13.4,1505.2,327.9,-0.8,1.8,2471.722,13.29,0.048,275.9
2022-01-21T08:55:03,42.805,6.029,-0.026,0.013,0.02,102.0,103.0,102.0,13.4,1505.2,331.7,-0.8,1.8,2471.826,13.29,0.029,296.6
2022-01-21T08:58:03,42.805,6.029,-0.031,-0.008,-0.001,103.0,103.0,101.0,13.4,1505.2,326.7,-0.7,1.8,2471.916,13.29,0.032,255.5
2022-01-21T09:04:03,42.805,6.029,-0.009,0.008,-0.027,103.0,104.0,102.0,13.4,1505.2,324.2,-0.7,1.8,2472.156,13.28,0.012,311.6
2022-01-21T09:07:03,42.805,6.029,-0.015,0.016,0.022,103.0,103.0,102.0,13.3,1505.2,328.1,-0.7,1.8,2472.283,13.28,0.021,316.9
2022-01-21T09:10:03,42.805,6.029,-0.021,0.003,-0.013,104.0,102.0,101.0,13.4,1505.2,325.7,-0.8,1.9,2472.477,13.29,0.021,278.1
2022-01-21T09:13:03,42.805,6.029,-0.024,0.015,0.013,105.0,104.0,101.0,13.4,1505.2,331.2,-0.8,1.8,2472.522,13.29,0.028,302.0
2022-01-21T09:16:03,42.805,6.029,-0.031,-0.001,-0.007,103.0,102.0,102.0,13.4,1505.2,325.4,-0.8,1.8,2472.649,13.29,0.031,268.2
2022-01-21T09:19:03,42.805,6.029,-0.025,-0.004,-0.019,103.0,102.0,101.0,13.4,1505.2,326.4,-0.8,1.8,2472.92,13.29,0.025,260.9
2022-01-21T09:22:03,42.805,6.029,-0.024,0.001,-0.012,103.0,103.0,103.0,13.4,1505.2,331.2,-0.7,1.8,2473.372,13.29,0.024,272.4
2022-01-21T09:25:03,42.805,6.029,-0.031,-0.007,-0.039,103.0,104.0,101.0,13.4,1505.2,327.9,-0.8,1.8,2473.702,13.29,0.031,257.3
2022-01-21T09:28:03,42.805,6.029,-0.034,0.016,0.002,106.0,102.0,101.0,13.4,1505.2,327.8,-0.8,1.8,2473.911,13.29,0.037,295.2
2022-01-21T09:31:03,42.805,6.029,-0.034,0.0,0.021,103.0,104.0,102.0,13.4,1505.2,324.6,-0.8,1.8,2473.964,13.29,0.034,270.0
2022-01-21T09:34:03,42.805,6.029,-0.027,-0.007,0.001,103.0,101.0,101.0,13.3,1505.2,330.0,-0.8,1.8,2473.734,13.29,0.027,255.5
2022-01-21T09:37:03,42.805,6.029,-0.038,0.01,-0.047,103.0,101.0,102.0,13.4,1505.2,327.2,-0.8,1.8,2473.542,13.29,0.039,284.7
2022-01-21T09:40:03,42.805,6.029,-0.03,0.008,0.013,101.0,104.0,101.0,13.3,1505.2,326.7,-0.8,1.8,2473.341,13.29,0.031,284.9
2022-01-21T09:43:03,42.805,6.029,-0.03,-0.01,0.013,104.0,101.0,102.0,13.3,1505.2,331.3,-0.8,1.8,2473.094,13.29,0.031,251.6
2022-01-21T09:46:03,42.805,6.029,-0.022,0.005,-0.019,103.0,102.0,102.0,13.3,1505.2,325.2,-0.8,1.8,2472.799,13.29,0.022,282.8
2022-01-21T09:49:03,42.805,6.029,-0.02,0.0,-0.017,103.0,102.0,101.0,13.3,1505.2,329.7,-0.8,1.9,2472.723,13.29,0.02,270.0
2022-01-21T09:52:03,42.805,6.029,-0.023,-0.02,-0.003,103.0,103.0,101.0,13.4,1505.2,327.3,-0.7,1.8,2471.892,13.29,0.03,229.0
2022-01-21T09:55:03,42.805,6.029,-0.033,-0.003,0.006,102.0,103.0,103.0,13.4,1505.2,329.0,-0.7,1.8,2471.5,13.29,0.033,264.8